Tracking 19146 objects as of 23-Apr-2018
HD Live streaming from Space Station
objects crossing your sky now

SL-24 R/B

Track SL-24 R/B now!
10-day predictions


NORAD ID: 27610
Int'l Code: 2002-058F
Perigee: 607.7 km
Apogee: 1,002.6 km
Inclination: 64.6 °
Period: 100.8 minutes
Semi major axis: 7176 km
RCS: 7.1875 m2 (large)
Launch date: December 20, 2002
Source: Commonwealth of Independent States (former USSR) (CIS)
Launch site: TYURATAM MISSILE AND SPACE COMPLEX (TTMTR)

Note: This is a ROCKET BODY
aabbcc
Your satellite tracking list
Your tracking list is empty




NASA's NSSDC Master Catalog

Two Line Element Set (TLE):
1 27610U 02058F   18112.93116389 -.00000080 +00000-0 +12447-4 0  9995
2 27610 064.5605 342.4994 0275112 128.7984 319.3754 14.28129120799610
Source of the keplerian elements: AFSPC